Location: *
(42.3442°N, 9.2072°E)
Time: 07:52:00
(UTC+00:00)

Cosmos 1174 - Visible Passes

Search period start: 11 August 2020 00:00
Search period end: 21 August 2020 00:00
Orbit: 365 x 1153 km, 66.1° (Epoch: 10 August)

Date Brightness Start Highest point End Pass type
(mag) Time Alt. Az. Time Alt. Az. Time Alt. Az.
12 Aug 6.1 03:49:48 10° SSE 03:53:12 27° ESE 03:57:19 10° NE visible
13 Aug 6.5 03:10:52 10° SE 03:13:19 15° ESE 03:16:03 10° ENE visible
15 Aug 4.9 03:30:51 10° S 03:34:44 50° ESE 03:39:41 10° NE visible
16 Aug 5.8 02:51:17 10° SSE 02:54:42 28° ESE 02:58:57 10° NE visible
17 Aug 6.4 02:12:25 11° SE 02:14:49 16° ESE 02:17:44 10° ENE visible
17 Aug 4.5 03:52:41 10° SW 03:56:50 54° NW 04:02:06 10° NNE visible
18 Aug 4.1 03:13:34 20° SSW 03:16:27 90° WNW 03:21:47 10° NNE visible
19 Aug 4.7 02:34:35 32° S 02:36:15 52° ESE 02:41:18 10° NE visible
20 Aug 5.5 01:55:35 28° ESE 01:56:12 29° ESE 02:00:35 10° NE visible
20 Aug 5.3 03:35:39 15° WSW 03:38:53 34° NW 03:43:55 10° NNE visible
